GALAXY 31 (G-31)

Last updated on Tue Sep 16 2025 00:02:50 GMT+0000 (Coordinated Universal Time)

1 54243U 22153A 25258.56056918 -.00000004 00000+0 00000+0 0 9996 2 54243 0.0228 224.7008 0001582 344.6494 226.2228 1.00271412 4371
UTC large
Height (km)
Speed (km/s)
/
Latitude / Longitude
Inclination (degrees)
Orbital Period (minutes)
Azimuth
Elevation
Range (km)
Doppler Factor

Next 0 passes for location: London (51.5072 / 0.1276)

Sorry there are no passes over London.